OBJECT F, 61740

Orbit data source: Space-Track

You're viewing an Uncataloged Satellite

Recently launched and/or uncataloged satellites may have evolving metadata. Metadata may include but not limited to: Owner, Maufacturer, Bus, Motor, and Mission.

OBJECT F, 61740 is a satellite in SSO that was launched on Mon, 04 Nov 2024 UTC via a SOYUZ-2-1B launch vehicle from the Vostochny Cosmodrome (VOSTO). Unknown objects in Earth's orbit typically refer to objects detected orbiting the Earth but have not yet been identified or cataloged. These objects could be anything from previously untracked satellites, spent rocket stages, debris from satellite collisions, or even natural meteoroids temporarily captured by Earth's gravity.

Loading next visibility...
Identifier
61740, 2024-199F
Orbit
SSO
Country
Flag of TBDTBD
Related business
Manufacturer
Sputniks
Mission
Operational Commercial Communications
Bus & Motor
CUBESAT 3U?, Unknown motor
Mass
3 kg wet, 3 kg dry
Launch date (UTC)
2024-11-04 (2 years ago)
Launch vehicle
SOYUZ-2-1B
Launch site
Vostochny Cosmodrome (VOSTO)
Object type
Unknown
Shape & HBR
Box, 0.1 m
Radar Cross Section
0.035 m², Small (<0.1 m²)

Expand to show TLE details & history
Last TLE update: 11 hours ago

TLE from 11 hours ago
0 OBJECT F
1 61740U 24199F   26145.62705386  .00002729  00000-0  24895-3 0  9999
2 61740  97.3262 345.1078 0013895 133.8679 226.3694 14.95777561128544
Epoch: 2026-05-25T15:02Z
TLE epoch observation values (Epoch: 2026-05-25T15:02:57.453Z)
Latitude
0.00001°
Longitude
-123.84372°
Altitude
589.7 km
Speed
7.562 km/s
True Right ascension
23h 00m 25s
True Declination
0° 00' 00"
Sunlit
Object was in daylight at epoch
Visualization orbit readout
Latitude
Unknown
Longitude
Unknown
Altitude
Unknown
Speed
Unknown
Apparent Right ascension
Unknown
Apparent Declination
Unknown
Sunlit
N/A
Visualization observer readout
Local Sidereal Time
11:37:56
Azimuth
Unknown
Elevation
Unknown
Doppler factor
Unknown
Orbital elements
Apogee altitude
586.619 km
Perigee altitude
567.291 km
Semi-major axis
6,955.092 km
Eccentricity
0.00139
Inclination
97.3262°
RAAN
345.1078°
Arg. of periapsis
133.8679°
True anomaly
226.25429°
Mean anomaly
226.3694°
Eccentric anomaly
226.31183°
Mean motion
3.74187 °/min
Orbital period
96.21 mins
BSTAR
0.00024895
Loading maneuver chart data...
Computing Atmospheric mass density...
Loading historical data...
Loading historical data...
Loading historical data...
Loading historical data...
Loading historical data...
Loading historical data...
Loading historical data...

Documentation

Showing up to 5 results
|